When you browse on this site, cookies collect data to enhance your experience and personalize the content and advertising you see.
Visit our Privacy Policy to learn more. By continuing to use the site, you agree to this use of cookies and data.
  • în România
  • Lista ţărilor
  • Pe 7 zile
  • Temperatura apei
  • Meteo pe hartă
  • Widget-uri
  • user-avatar
    Intrare

    Meteo pe oră la La Massana

    Astăzi, 18 Noiembrie, Luni

    Timp Temperatura Precipitaţii Vânt Presiune Umiditate
    00:00 -3°C° 0 mm 1 m/s 600 mmHg 93%
    01:00 -3°C° 0.2 mm 1 m/s 600 mmHg 94%
    02:00 -3°C° 0.2 mm 1 m/s 600 mmHg 94%
    03:00 -3°C° 0.2 mm 1 m/s 600 mmHg 95%
    04:00 -3°C° 0.4 mm 1 m/s 600 mmHg 95%
    05:00 -5°C° 0.4 mm 2 m/s 601 mmHg 95%
    06:00 -5°C° 0.4 mm 2 m/s 601 mmHg 95%
    07:00 -4°C° 0.5 mm 2 m/s 602 mmHg 92%
    08:00 -4°C° 0.5 mm 2 m/s 602 mmHg 89%
    09:00 -3°C° 0.5 mm 2 m/s 603 mmHg 87%
    10:00 -3°C° 0.3 mm 2 m/s 603 mmHg 85%
    11:00 -3°C° 0.3 mm 2 m/s 603 mmHg 83%
    12:00 -2°C° 0.3 mm 2 m/s 604 mmHg 82%
    13:00 -3°C° 0.1 mm 2 m/s 604 mmHg 83%
    14:00 -3°C° 0.1 mm 2 m/s 603 mmHg 84%
    15:00 -4°C° 0.1 mm 2 m/s 603 mmHg 85%
    16:00 -5°C° 0 mm 2 m/s 603 mmHg 87%
    17:00 -6°C° 0 mm 2 m/s 602 mmHg 90%
    18:00 -9°C° 0 mm 3 m/s 602 mmHg 93%
    19:00 -9°C° 0.1 mm 3 m/s 602 mmHg 92%
    20:00 -9°C° 0.1 mm 3 m/s 603 mmHg 92%
    21:00 -9°C° 0.1 mm 3 m/s 603 mmHg 91%
    22:00 -8°C° 0 mm 2 m/s 603 mmHg 89%
    23:00 -9°C° 0 mm 2 m/s 603 mmHg 88%

    Mâine, 19 Noiembrie, Marţi

    Timp Temperatura Precipitaţii Vânt Presiune Umiditate
    00:00 -9°C° 0 mm 2 m/s 603 mmHg 87%
    01:00 -9°C° 0 mm 2 m/s 603 mmHg 83%
    02:00 -9°C° 0 mm 2 m/s 602 mmHg 80%
    03:00 -9°C° 0 mm 2 m/s 602 mmHg 77%
    04:00 -9°C° 0 mm 2 m/s 602 mmHg 75%
    05:00 -9°C° 0 mm 2 m/s 602 mmHg 74%
    06:00 -9°C° 0 mm 2 m/s 602 mmHg 72%
    07:00 -8°C° 0 mm 2 m/s 603 mmHg 70%
    08:00 -4°C° 0 mm 1 m/s 604 mmHg 68%
    09:00 -2°C° 0 mm 1 m/s 605 mmHg 66%
    10:00 -1°C° 0 mm 1 m/s 606 mmHg 64%
    11:00 +1°C° 0 mm 1 m/s 606 mmHg 62%
    12:00 +2°C° 0 mm 1 m/s 606 mmHg 60%
    13:00 +1°C° 0 mm 1 m/s 606 mmHg 64%
    14:00 +1°C° 0 mm 1 m/s 606 mmHg 68%
    15:00 +1°C° 0 mm 1 m/s 605 mmHg 72%
    16:00 -1°C° 0 mm 1 m/s 604 mmHg 74%
    17:00 -3°C° 0 mm 1 m/s 604 mmHg 77%
    18:00 -6°C° 0 mm 1 m/s 603 mmHg 79%
    19:00 -6°C° 0 mm 1 m/s 603 mmHg 78%
    20:00 -6°C° 0 mm 1 m/s 603 mmHg 77%
    21:00 -6°C° 0 mm 1 m/s 603 mmHg 76%
    22:00 -6°C° 0 mm 1 m/s 603 mmHg 74%
    23:00 -6°C° 0 mm 1 m/s 603 mmHg 73%

    Poimâine, 20 Noiembrie, Miercuri

    Timp Temperatura Precipitaţii Vânt Presiune Umiditate
    00:00 -6°C° 0 mm 1 m/s 603 mmHg 71%
    01:00 -6°C° 0 mm 1 m/s 602 mmHg 71%
    02:00 -7°C° 0 mm 1 m/s 602 mmHg 71%
    03:00 -8°C° 0 mm 2 m/s 602 mmHg 70%
    04:00 -8°C° 0 mm 2 m/s 602 mmHg 70%
    05:00 -8°C° 0 mm 2 m/s 602 mmHg 69%
    06:00 -8°C° 0 mm 2 m/s 602 mmHg 68%
    07:00 -6°C° 0 mm 2 m/s 602 mmHg 67%
    08:00 -5°C° 0 mm 2 m/s 603 mmHg 65%
    09:00 -4°C° 0 mm 2 m/s 604 mmHg 64%
    10:00 -3°C° 0 mm 2 m/s 604 mmHg 65%
    11:00 -2°C° 0 mm 2 m/s 604 mmHg 65%
    12:00 -1°C° 0 mm 3 m/s 604 mmHg 66%
    13:00 -1°C° 0 mm 2 m/s 603 mmHg 69%
    14:00 -2°C° 0 mm 2 m/s 603 mmHg 72%
    15:00 -2°C° 0 mm 2 m/s 603 mmHg 75%
    16:00 -3°C° 0 mm 2 m/s 602 mmHg 79%
    17:00 -5°C° 0 mm 2 m/s 601 mmHg 83%
    18:00 -6°C° 0 mm 2 m/s 601 mmHg 88%
    19:00 -6°C° 0 mm 2 m/s 601 mmHg 88%
    20:00 -6°C° 0 mm 2 m/s 601 mmHg 89%
    21:00 -6°C° 0 mm 2 m/s 601 mmHg 90%
    22:00 -6°C° 0 mm 2 m/s 601 mmHg 91%
    23:00 -5°C° 0 mm 2 m/s 601 mmHg 92%

    21 Noiembrie, Joi

    Timp Temperatura Precipitaţii Vânt Presiune Umiditate
    00:00 -5°C° 0 mm 2 m/s 601 mmHg 93%
    01:00 -5°C° 0 mm 2 m/s 601 mmHg 93%
    02:00 -5°C° 0 mm 2 m/s 601 mmHg 94%
    03:00 -5°C° 0 mm 2 m/s 601 mmHg 94%
    04:00 -5°C° 0 mm 2 m/s 601 mmHg 94%
    05:00 -5°C° 0 mm 2 m/s 601 mmHg 94%
    06:00 -5°C° 0 mm 2 m/s 601 mmHg 94%
    07:00 -4°C° 0 mm 2 m/s 601 mmHg 92%
    08:00 -3°C° 0 mm 2 m/s 602 mmHg 89%
    09:00 0°C° 0 mm 1 m/s 603 mmHg 86%
    10:00 -1°C° 0 mm 2 m/s 603 mmHg 84%
    11:00 +1°C° 0 mm 2 m/s 603 mmHg 81%
    12:00 +2°C° 0 mm 2 m/s 603 mmHg 78%
    13:00 +1°C° 0 mm 2 m/s 603 mmHg 81%
    14:00 +1°C° 0 mm 2 m/s 603 mmHg 83%
    15:00 +1°C° 0 mm 2 m/s 602 mmHg 86%
    16:00 -1°C° 0 mm 2 m/s 602 mmHg 88%
    17:00 -3°C° 0 mm 2 m/s 602 mmHg 90%
    18:00 -4°C° 0 mm 2 m/s 601 mmHg 92%
    19:00 -3°C° 0.1 mm 2 m/s 602 mmHg 92%
    20:00 -3°C° 0.1 mm 2 m/s 602 mmHg 92%
    21:00 -3°C° 0.1 mm 2 m/s 602 mmHg 93%
    22:00 -3°C° 0.2 mm 2 m/s 602 mmHg 94%
    23:00 -2°C° 0.2 mm 2 m/s 602 mmHg 95%

    22 Noiembrie, Vineri

    Timp Temperatura Precipitaţii Vânt Presiune Umiditate
    00:00 -2°C° 0.2 mm 3 m/s 602 mmHg 95%
    01:00 -2°C° 0.5 mm 2 m/s 601 mmHg 96%
    02:00 -2°C° 0.5 mm 2 m/s 601 mmHg 96%
    03:00 -2°C° 0.5 mm 2 m/s 601 mmHg 97%
    04:00 -2°C° 1.1 mm 2 m/s 600 mmHg 97%
    05:00 -2°C° 1.1 mm 2 m/s 600 mmHg 97%
    06:00 -2°C° 1.1 mm 2 m/s 600 mmHg 97%
    07:00 -2°C° 1.8 mm 2 m/s 600 mmHg 97%
    08:00 -1°C° 1.8 mm 2 m/s 600 mmHg 97%
    09:00 -1°C° 1.8 mm 2 m/s 600 mmHg 97%
    10:00 -1°C° 0.9 mm 2 m/s 600 mmHg 97%
    11:00 -1°C° 0.9 mm 2 m/s 600 mmHg 97%
    12:00 +1°C° 0.9 mm 2 m/s 600 mmHg 96%
    13:00 +2°C° 0.3 mm 1 m/s 600 mmHg 97%
    14:00 +2°C° 0.3 mm 1 m/s 599 mmHg 97%
    15:00 +2°C° 0.3 mm 1 m/s 599 mmHg 98%
    16:00 +1°C° 0.1 mm 1 m/s 599 mmHg 98%
    17:00 +1°C° 0.1 mm 1 m/s 599 mmHg 98%
    18:00 0°C° 0.1 mm 0 m/s 599 mmHg 98%
    19:00 -1°C° 0 mm 0 m/s 599 mmHg 98%
    20:00 -1°C° 0 mm 0 m/s 599 mmHg 98%
    21:00 0°C° 0 mm 1 m/s 600 mmHg 97%
    22:00 0°C° 0.1 mm 1 m/s 600 mmHg 97%
    23:00 -1°C° 0.1 mm 1 m/s 600 mmHg 96%

    23 Noiembrie, Sâmbătă

    Timp Temperatura Precipitaţii Vânt Presiune Umiditate
    00:00 -1°C° 0.1 mm 1 m/s 600 mmHg 95%
    01:00 -3°C° 0.8 mm 2 m/s 600 mmHg 95%
    02:00 -3°C° 0.8 mm 2 m/s 599 mmHg 95%
    03:00 -4°C° 0.8 mm 2 m/s 599 mmHg 96%
    04:00 -4°C° 0.4 mm 2 m/s 600 mmHg 95%
    05:00 -4°C° 0.4 mm 2 m/s 600 mmHg 95%
    06:00 -5°C° 0.4 mm 2 m/s 600 mmHg 95%
    07:00 -4°C° 0.3 mm 2 m/s 601 mmHg 93%
    08:00 -4°C° 0.3 mm 3 m/s 602 mmHg 92%
    09:00 -4°C° 0.3 mm 3 m/s 602 mmHg 91%
    10:00 -2°C° 0.2 mm 3 m/s 603 mmHg 89%
    11:00 -2°C° 0.2 mm 3 m/s 603 mmHg 87%
    12:00 -2°C° 0.2 mm 3 m/s 603 mmHg 85%
    13:00 -2°C° 0.2 mm 3 m/s 603 mmHg 86%
    14:00 -2°C° 0.2 mm 3 m/s 603 mmHg 86%
    15:00 -2°C° 0.2 mm 3 m/s 603 mmHg 87%
    16:00 -4°C° 0.1 mm 3 m/s 604 mmHg 89%
    17:00 -5°C° 0.1 mm 3 m/s 604 mmHg 91%
    18:00 -6°C° 0.1 mm 3 m/s 605 mmHg 92%
    19:00 -6°C° 0 mm 3 m/s 605 mmHg 92%
    20:00 -5°C° 0 mm 2 m/s 606 mmHg 92%
    21:00 -5°C° 0 mm 2 m/s 606 mmHg 92%
    22:00 -6°C° 0 mm 2 m/s 606 mmHg 89%
    23:00 -6°C° 0 mm 2 m/s 606 mmHg 86%
    Arată mai mult